Lid_Strength_Index
4 4 5 6 7 8 11 14 14 8 7 11 13 13 10 8 7 6 8 9 10 11 10 11 11 11 9 7 8 9 8 11 14 11 7 7 9 10 11 13 15 15 15 14
4 4 5 6 7 8 13 15 13 8 8 15 15 13 10 8 8 7 8 9 8 9 11 13 11 9 7 7 7 9 8 11 14 12 11 8 10 10 11 12 13 12 15 14
4 4 5 6 6 6 11 14 14 11 10 11 11 11 10 8 5 7 7 8 7 9 11 11 12 10 8 7 7 6 7 12 13 15 13 10 11 9 9 11 14 14 14 12
4 4 5 5 5 5 10 12 12 12 14 13 12 12 10 9 9 7 7 8 8 10 12 11 11 9 8 7 6 7 9 12 12 11 10 9 10 10 10 11 11 13 13 11
3 3 4 4 4 6 11 12 13 12 13 12 12 11 10 9 8 8 9 9 7 9 12 11 11 9 10 11 9 9 8 12 12 13 10 11 13 11 10 11 12 12 12 12
3 2 3 3 5 7 11 10 10 11 12 13 13 12 10 9 8 7 6 7 8 9 8 7 6 7 8 8 10 9 10 11 13 14 11 11 16 13 12 12 11 12 15 12
2 2 2 4 5 6 9 10 11 12 14 13 12 10 9 10 8 9 7 6 8 6 4 5 6 7 8 8 9 8 10 11 12 14 13 18 12 9 9 11 11 10 10 10
2 1 2 4 4 4 9 9 11 12 14 11 10 10 11 10 9 9 7 6 5 5 6 9 11 11 10 9 9 9 8 10 12 14 15 14 12 10 11 12 12 9 10 9
1 1 2 3 4 4 8 9 9 11 12 12 9 10 10 12 12 10 8 6 7 7 9 10 15 15 13 13 11 8 10 10 12 13 15 17 13 9 7 8 15 9 8 9
1 1 2 3 3 4 8 9 9 10 12 10 10 11 11 10 10 10 9 9 7 6 11 13 15 15 11 15 15 14 14 13 14 14 14 15 10 8 7 14 14 8 7 7
1 1 2 2 3 3 7 8 8 9 11 9 8 7 10 10 11 11 10 10 8 9 12 13 13 14 13 13 12 14 15 15 16 15 17 19 8 8 12 10 8 7 7 7
1 1 2 2 3 3 5 10 7 7 9 8 6 5 6 7 8 10 11 10 9 8 11 11 11 13 12 13 16 10 14 13 14 13 14 9 7 8 6 6 7 7 7 6
1 1 1 1 3 3 5 8 8 8 9 8 9 9 7 7 6 6 11 9 6 7 6 8 10 12 10 13 13 12 10 9 12 12 10 9 8 6 6 5 6 5 5 5
1 1 1 1 2 3 4 8 8 8 9 11 10 6 7 7 8 7 6 7 6 6 7 9 9 11 8 11 10 11 10 9 11 11 9 8 7 6 6 5 4 5 5 5
1 1 1 2 3 3 5 7 7 6 8 11 10 7 7 8 9 6 6 6 9 8 9 9 10 8 9 9 9 11 8 10 12 12 8 8 8 6 5 5 5 5 5 5
1 2 2 2 3 3 8 10 7 6 6 10 13 10 9 8 7 7 7 7 7 6 7 9 8 7 8 11 12 9 7 7 7 8 6 6 5 5 4 5 4 4 4 5
2 3 3 3 3 6 9 9 7 5 7 11 12 11 7 6 8 7 7 6 6 6 8 8 8 8 8 10 12 8 7 7 6 6 6 7 6 6 4 4 4 4 4 4
2 3 3 4 3 6 8 7 4 5 8 9 12 11 10 6 8 9 7 8 7 7 7 8 10 9 9 11 8 7 6 6 6 6 5 5 5 5 5 4 4 5 5 5
3 3 4 5 7 8 7 2 3 6 8 11 10 12 13 7 8 7 7 8 10 7 8 9 9 10 11 10 8 8 7 7 6 5 5 5 5 5 5 5 5 6 6 5
4 6 8 9 7 3 4 8 9 9 10 10 12 10 12 9 8 8 8 7 9 11 9 8 10 11 8 7 6 6 6 5 5 8 7 7 7 6 6 5 5 5 5 5
7 9 9 7 3 8 9 10 11 10 10 9 10 10 12 9 10 9 8 9 9 12 10 10 11 12 9 7 6 6 6 6 5 6 5 5 5 5 5 5 4 4 4 4
7 7 5 6 9 10 11 11 9 9 10 9 10 9 10 10 8 9 8 10 9 13 8 10 13 10 7 6 6 5 5 4 4 4 4 4 4 4 4 4 4 4 4 4
4 5 6 9 10 14 11 13 11 10 8 7 9 10 10 11 8 8 9 11 12 8 11 12 11 8 7 6 5 5 4 4 4 4 4 4 4 4 4 4 4 3 4 3
7 8 14 10 11 10 10 10 9 7 7 8 8 9 9 9 9 9 11 10 10 12 13 13 10 8 7 6 5 5 5 4 4 4 4 4 4 4 4 4 4 4 4 3
8 8 11 10 8 8 8 7 7 6 5 7 9 9 9 10 10 10 10 12 13 12 12 10 8 6 6 6 5 5 5 5 5 4 5 5 5 5 5 4 4 3 3 3
6 7 9 8 9 10 9 8 7 6 6 6 9 10 11 11 11 11 12 12 13 11 9 8 6 6 6 6 5 5 5 5 5 4 4 4 5 5 5 5 4 4 4 4
8 9 7 8 8 8 7 6 6 4 6 8 9 10 11 9 12 12 10 12 10 8 7 6 6 6 6 6 6 5 4 5 5 5 4 5 4 4 5 5 4 3 3 3